| time (UTC) | temp F | wind direction | speed MPH | gust MPH | rain 1hr in | rain 24hr in | rain mn in | humidity % | barometer mb |
| 20260504020042 | 0 | 0.0 | 0.0 | 0.00 | 0.00 | 0.00 | 1017.5 | ||
| 20260504014533 | 0 | 0.0 | 0.0 | 0.00 | 0.00 | 0.00 | 1017.3 | ||
| 20260504013037 | 0 | 0.0 | 0.0 | 0.00 | 0.00 | 0.00 | 1017.3 | ||
| 20260504011534 | 0 | 0.0 | 0.0 | 0.00 | 0.00 | 0.00 | 1017.2 | ||
| 20260504010034 | 0 | 0.0 | 0.0 | 0.00 | 0.00 | 0.00 | 1017.1 | ||
| 20260504004539 | 0 | 0.0 | 0.0 | 0.00 | 0.00 | 0.00 | 1017.0 | ||
| 20260504003039 | 0 | 0.0 | 0.0 | 0.00 | 0.00 | 0.00 | 1016.8 | ||
| 20260504001538 | 59 | 0 | 0.0 | 0.0 | 0.00 | 0.00 | 0.00 | 60 | 1017.0 |
| 20260504000053 | 61 | 0 | 0.0 | 1.0 | 0.00 | 0.00 | 0.00 | 53 | 1016.8 |
| 20260503234537 | 64 | 0 | 0.0 | 2.0 | 0.00 | 0.00 | 0.00 | 47 | 1016.7 |
| 20260503233031 | 65 | 157 | 0.0 | 2.0 | 0.00 | 0.00 | 0.00 | 41 | 1016.8 |
| 20260503231532 | 66 | 156 | 0.0 | 6.0 | 0.00 | 0.00 | 0.00 | 40 | 1016.9 |
| 20260503230033 | 66 | 231 | 1.0 | 9.0 | 0.00 | 0.00 | 0.00 | 39 | 1016.8 |
| 20260503224533 | 67 | 230 | 0.0 | 9.0 | 0.00 | 0.00 | 0.00 | 38 | 1016.7 |
| 20260503223038 | 67 | 224 | 1.0 | 4.0 | 0.00 | 0.00 | 0.00 | 39 | 1016.8 |
| 20260503221546 | 68 | 229 | 1.0 | 9.0 | 0.00 | 0.00 | 0.00 | 37 | 1016.9 |
| 20260503220030 | 68 | 194 | 2.0 | 8.0 | 0.00 | 0.00 | 0.00 | 36 | 1017.0 |
| 20260503214533 | 68 | 196 | 1.0 | 9.0 | 0.00 | 0.00 | 0.00 | 37 | 1017.2 |
| 20260503213031 | 68 | 138 | 2.0 | 6.0 | 0.00 | 0.00 | 0.00 | 35 | 1017.2 |
| 20260503211533 | 68 | 238 | 3.0 | 9.0 | 0.00 | 0.00 | 0.00 | 35 | 1017.3 |
| 20260503210036 | 68 | 230 | 2.0 | 10.0 | 0.00 | 0.00 | 0.00 | 36 | 1017.5 |
| 20260503204534 | 68 | 194 | 2.0 | 9.0 | 0.00 | 0.00 | 0.00 | 35 | 1017.7 |
| 20260503203049 | 68 | 0 | 1.0 | 6.0 | 0.00 | 0.00 | 0.00 | 37 | 1017.9 |
| 20260503201537 | 68 | 159 | 2.0 | 9.0 | 0.00 | 0.00 | 0.00 | 37 | 1018.2 |
| 20260503200037 | 67 | 0 | 2.0 | 7.0 | 0.00 | 0.00 | 0.00 | 37 | 1018.5 |
| 20260503194531 | 67 | 227 | 4.0 | 11.0 | 0.00 | 0.00 | 0.00 | 37 | 1018.8 |
| 20260503193036 | 67 | 236 | 4.0 | 13.0 | 0.00 | 0.00 | 0.00 | 38 | 1019.1 |
| 20260503191537 | 66 | 198 | 2.0 | 10.0 | 0.00 | 0.00 | 0.00 | 37 | 1019.3 |
| 20260503190039 | 67 | 208 | 2.0 | 7.0 | 0.00 | 0.00 | 0.00 | 37 | 1019.3 |
| 20260503184532 | 66 | 233 | 2.0 | 10.0 | 0.00 | 0.00 | 0.00 | 36 | 1019.5 |
| 20260503183034 | 66 | 242 | 4.0 | 10.0 | 0.00 | 0.00 | 0.00 | 39 | 1019.4 |
| 20260503181531 | 66 | 184 | 1.0 | 12.0 | 0.00 | 0.00 | 0.00 | 39 | 1019.7 |
| 20260503180032 | 64 | 178 | 0.0 | 8.0 | 0.00 | 0.00 | 0.00 | 38 | 1019.8 |
| 20260503174531 | 65 | 245 | 5.0 | 14.0 | 0.00 | 0.00 | 0.00 | 39 | 1020.1 |
| 20260503173050 | 64 | 146 | 2.0 | 7.0 | 0.00 | 0.00 | 0.00 | 41 | 1020.1 |
| 20260503171538 | 64 | 0 | 2.0 | 9.0 | 0.00 | 0.00 | 0.00 | 39 | 1020.5 |
| 20260503081535 | 0 | 0.0 | 0.0 | 0.00 | 0.00 | 0.00 | 1018.4 | ||
| 20260503071534 | 0 | 0.0 | 0.0 | 0.00 | 0.00 | 0.00 | 1017.6 | ||
| 20260503054536 | 0 | 0.0 | 0.0 | 0.00 | 0.00 | 0.00 | 1017.6 | ||
| 20260503053031 | 0 | 0.0 | 0.0 | 0.00 | 0.00 | 0.00 | 1017.8 | ||
| 20260503051535 | 0 | 0.0 | 0.0 | 0.00 | 0.00 | 0.00 | 1017.7 | ||
| 20260503050034 | 0 | 0.0 | 0.0 | 0.00 | 0.00 | 0.00 | 1017.7 | ||
| 20260503044534 | 0 | 0.0 | 0.0 | 0.00 | 0.00 | 0.00 | 1017.5 | ||
| 20260503043031 | 0 | 0.0 | 0.0 | 0.00 | 0.00 | 0.00 | 1017.5 | ||
| 20260503041533 | 0 | 0.0 | 0.0 | 0.00 | 0.00 | 0.00 | 1017.4 | ||
| 20260503040034 | 0 | 0.0 | 0.0 | 0.00 | 0.00 | 0.00 | 1017.5 | ||
| 20260503034535 | 0 | 0.0 | 0.0 | 0.00 | 0.00 | 0.00 | 1017.4 | ||
| 20260503033050 | 0 | 0.0 | 0.0 | 0.00 | 0.00 | 0.00 | 1017.1 | ||
| 20260503031536 | 0 | 0.0 | 0.0 | 0.00 | 0.00 | 0.00 | 1017.1 | ||
| 20260503030033 | 0 | 0.0 | 0.0 | 0.00 | 0.00 | 0.00 | 1016.9 | ||
| 20260503024531 | 0 | 0.0 | 0.0 | 0.00 | 0.00 | 0.00 | 1016.8 | ||
| 20260503023043 | 0 | 0.0 | 0.0 | 0.00 | 0.00 | 0.00 | 1016.5 | ||
| 20260503021532 | 0 | 0.0 | 0.0 | 0.00 | 0.00 | 0.00 | 1016.3 |